Volver al catálogo

DELTA 1 DEB

ActivoSSO
NORAD 21297·DEBRIS·🇺🇸 United States

Lanzado Jun 12, 1975 desde Vandenberg Space Force Base

Loading…

Próximos Pases (próximas 24 horas)

TLE

ActualizadoSource: Space-Track

Época: Sep 14, 2026, 09:48 UTC

1 21297U 75052AJ  26257.40840464  .00000043  00000-0  16751-3 0  9992
2 21297  99.6798  81.2669 0070914 110.7866   4.9476 13.33322070718081

Sigue DELTA 1 DEB en tiempo real con AllMySat

Download on the App Store